User: anonymous   Login
Location: Berg
(47.2344°N, 9.5296°E)
Time: 15:16:59
(UTC+00:00)
Language:

Cosmos 1825 Rocket - Orbit

View from above orbital plane
View from above orbital plane
View from above satellite
View from above satellite

Ground track
Ground track

The orbit data is extracted from the following two-line orbital elements,

1 17567U 87024B   21107.70145197  .00000087  00000-0  75924-5 0  9999
2 17567  82.5283 328.0797 0020340  48.7062 311.5900 14.83800298823058
Epoch (UTC): 17 April 2021 16:50:05
Eccentricity: 0.0020340
inclination: 82.5283°
perigee height: 603 km
apogee height: 631 km
right ascension of ascending node: 328.0797°
argument of perigee: 48.7062°
revolutions per day: 14.83800298
mean anomaly at epoch: 311.5900°
orbit number at epoch: 82305

The dashed part of the orbit path shows where the satellite is in the earth's shadow,  

DLR